Time,TemperatureF,DewpointF,PressureIn,WindDirection,WindDirectionDegrees,WindSpeedMPH,WindSpeedGustMPH,Humidity,HourlyPrecipIn,Conditions,Clouds,dailyrainin,SoftwareType,DateUTC
2013-04-08 00:00:00,39.9,13.1,29.69,NNE,31,1.0,1.0,33,0.00,,,0.00,Wunderground v.1.15,2013-04-08 06:00:00,
2013-04-08 00:30:00,40.5,12.9,29.68,NE,41,0.0,2.0,32,0.00,,,0.00,Wunderground v.1.15,2013-04-08 06:30:00,
2013-04-08 01:00:00,39.1,12.4,29.66,NE,41,1.0,1.0,33,0.00,,,0.00,Wunderground v.1.15,2013-04-08 07:00:00,
2013-04-08 01:30:00,37.8,12.6,29.66,NE,41,1.0,1.0,35,0.00,,,0.00,Wunderground v.1.15,2013-04-08 07:30:00,
2013-04-08 02:00:00,37.2,12.0,29.66,NE,41,1.0,2.0,35,0.00,,,0.00,Wunderground v.1.15,2013-04-08 08:00:00,
2013-04-08 02:30:00,38.3,12.3,29.64,NE,41,0.0,0.0,34,0.00,,,0.00,Wunderground v.1.15,2013-04-08 08:30:00,
2013-04-08 03:00:00,38.5,13.2,29.63,NE,41,0.0,0.0,35,0.00,,,0.00,Wunderground v.1.15,2013-04-08 09:00:00,
2013-04-08 03:30:00,39.5,13.4,29.60,NE,41,1.0,2.0,34,0.00,,,0.00,Wunderground v.1.15,2013-04-08 09:30:00,
2013-04-08 04:00:00,39.9,13.8,29.58,NE,41,0.0,0.0,34,0.00,,,0.00,Wunderground v.1.15,2013-04-08 10:00:00,
2013-04-08 04:30:00,38.5,16.8,29.56,NE,41,0.0,1.0,41,0.00,,,0.00,Wunderground v.1.15,2013-04-08 10:30:00,
2013-04-08 05:00:00,38.0,14.6,29.56,NE,41,1.0,1.0,38,0.00,,,0.00,Wunderground v.1.15,2013-04-08 11:00:00,
2013-04-08 05:30:00,39.2,16.3,29.56,NE,41,0.0,0.0,39,0.00,,,0.00,Wunderground v.1.15,2013-04-08 11:30:00,
2013-04-08 06:00:00,40.3,16.7,29.55,NE,41,0.0,0.0,38,0.00,,,0.00,Wunderground v.1.15,2013-04-08 12:00:00,
2013-04-08 06:30:00,42.5,16.7,29.54,ESE,116,1.0,1.0,35,0.00,,,0.00,Wunderground v.1.15,2013-04-08 12:30:00,
2013-04-08 07:00:00,42.6,17.5,29.52,East,95,0.0,2.0,36,0.00,,,0.00,Wunderground v.1.15,2013-04-08 13:00:00,
2013-04-08 08:30:00,43.3,19.4,29.59,ENE,64,5.0,5.0,38,0.00,,,0.00,Wunderground v.1.15,2013-04-08 14:30:00,
2013-04-08 09:00:00,44.5,21.0,29.58,East,86,3.0,5.0,39,0.00,,,0.00,Wunderground v.1.15,2013-04-08 15:00:00,
2013-04-08 09:30:00,43.9,21.1,29.59,NE,38,6.0,6.0,40,0.00,,,0.00,Wunderground v.1.15,2013-04-08 15:30:00,
2013-04-08 10:00:00,44.2,22.5,29.57,SSE,167,6.0,13.0,42,0.00,,,0.00,Wunderground v.1.15,2013-04-08 16:00:00,
2013-04-08 10:30:00,44.8,23.6,29.58,SSE,151,5.0,7.0,43,0.00,,,0.00,Wunderground v.1.15,2013-04-08 16:30:00,
2013-04-08 11:00:00,47.0,24.5,29.57,North,1,4.0,4.0,41,0.00,,,0.00,Wunderground v.1.15,2013-04-08 17:00:00,
2013-04-08 11:30:00,48.8,24.9,29.53,NNE,17,3.0,6.0,39,0.00,,,0.00,Wunderground v.1.15,2013-04-08 17:30:00,
2013-04-08 12:00:00,49.9,22.6,29.50,NE,49,4.0,8.0,34,0.00,,,0.00,Wunderground v.1.15,2013-04-08 18:00:00,
2013-04-08 12:30:00,53.3,21.8,29.45,SW,227,7.0,14.0,29,0.00,,,0.00,Wunderground v.1.15,2013-04-08 18:30:00,
2013-04-08 13:00:00,51.4,24.6,29.42,NNE,16,5.0,5.0,35,0.00,,,0.00,Wunderground v.1.15,2013-04-08 19:00:00,
2013-04-08 13:30:00,51.3,22.4,29.38,SSE,150,5.0,12.0,32,0.00,,,0.00,Wunderground v.1.15,2013-04-08 19:30:00,
2013-04-08 14:00:00,52.0,19.9,29.34,SSW,208,11.0,11.0,28,0.00,,,0.00,Wunderground v.1.15,2013-04-08 20:00:00,
2013-04-08 14:30:00,53.9,17.9,29.31,SW,234,12.0,12.0,24,0.00,,,0.00,Wunderground v.1.15,2013-04-08 20:30:00,
2013-04-08 15:00:00,54.7,17.6,29.29,South,188,10.0,10.0,23,0.00,,,0.00,Wunderground v.1.15,2013-04-08 21:00:00,
2013-04-08 15:30:00,54.1,16.0,29.25,South,179,17.0,17.0,22,0.00,,,0.00,Wunderground v.1.15,2013-04-08 21:30:00,
2013-04-08 16:00:00,52.6,16.8,29.26,WSW,240,12.0,14.0,24,0.00,,,0.00,Wunderground v.1.15,2013-04-08 22:00:00,
2013-04-08 16:30:00,52.5,16.7,29.28,South,189,15.0,15.0,24,0.00,,,0.00,Wunderground v.1.15,2013-04-08 22:30:00,
2013-04-08 17:00:00,50.1,18.2,29.31,SSW,198,19.0,36.0,28,0.00,,,0.00,Wunderground v.1.15,2013-04-08 23:00:00,
2013-04-08 17:30:00,42.5,29.2,29.38,NNE,24,5.0,5.0,59,0.00,,,0.00,Wunderground v.1.15,2013-04-08 23:30:00,
2013-04-08 18:00:00,38.3,31.1,29.44,WSW,251,6.0,8.0,75,0.00,,,0.01,Wunderground v.1.15,2013-04-09 00:00:00,
2013-04-08 18:30:00,37.9,30.4,29.42,South,169,5.0,5.0,74,0.00,,,0.01,Wunderground v.1.15,2013-04-09 00:30:00,
2013-04-08 19:00:00,35.8,28.6,29.48,SSE,168,5.0,12.0,75,0.00,,,0.01,Wunderground v.1.15,2013-04-09 01:00:00,
2013-04-08 19:30:00,33.5,25.4,29.53,SW,223,8.0,10.0,72,0.00,,,0.01,Wunderground v.1.15,2013-04-09 01:30:00,
2013-04-08 20:00:00,34.0,25.2,29.53,NE,40,4.0,7.0,70,0.00,,,0.01,Wunderground v.1.15,2013-04-09 02:00:00,
2013-04-08 20:30:00,33.4,25.0,29.52,NNE,32,3.0,5.0,71,0.00,,,0.01,Wunderground v.1.15,2013-04-09 02:30:00,
2013-04-08 21:00:00,34.4,24.6,29.49,NE,40,2.0,2.0,67,0.00,,,0.01,Wunderground v.1.15,2013-04-09 03:00:00,
2013-04-08 21:30:00,37.2,22.1,29.50,NE,40,1.0,1.0,54,0.00,,,0.01,Wunderground v.1.15,2013-04-09 03:30:00,
2013-04-08 22:00:00,32.8,25.1,29.56,South,178,0.0,0.0,73,0.11,,,0.03,Wunderground v.1.15,2013-04-09 04:00:00,
2013-04-08 22:30:00,32.1,25.4,29.55,ENE,59,1.0,5.0,76,0.00,,,0.04,Wunderground v.1.15,2013-04-09 04:30:00,
2013-04-08 23:00:00,31.2,24.2,29.55,NNE,27,2.0,20.0,75,0.00,,,0.04,Wunderground v.1.15,2013-04-09 05:00:00,
2013-04-08 23:30:00,30.7,23.7,29.51,NNE,28,4.0,20.0,75,0.00,,,0.00,Wunderground v.1.15,2013-04-09 05:30:00,